Regional Weather Roundup
Issued by NWS Little Rock, AR

Home | Current Version | Previous Version | Text Only | Print | Product List | Glossary Off
Versions: 1 2 3 4 5 6 7 8 9 10 11 12 13 14 15 16 17 18 19 20 21 22 23 24 25 26 27 28 29 30 31 32 33 34 35 36 37 38 39 40 41 42 43 44 45 46 47 48 49 50

000
ASUS44 KLZK 300605
RWRLZK

WEATHER ROUNDUP FOR ARKANSAS
NATIONAL WEATHER SERVICE LITTLE ROCK AR
100 AM CDT THU JUL 30 2015

NOTE: "FAIR" INDICATES FEW OR NO CLOUDS BELOW 12,000 FEET WITH NO
SIGNIFICANT WEATHER AND/OR OBSTRUCTIONS TO VISIBILITY.

ARZ001-003-010-029-300700-
NORTHWEST ARKANSAS

CITY           SKY/WX    TMP DP  RH WIND       PRES   REMARKS
FAYETTEVILLE   CLEAR     77  73  87 NE5       30.13S
6HR MIN TEMP:  77; 6HR MAX TEMP:  89;

FORT SMITH     MOCLDY    83  75  77 NE8       30.06R HX  90
6HR MIN TEMP:  83; 6HR MAX TEMP:  95;

HARRISON       CLEAR     74  72  93 CALM      30.16S
6HR MIN TEMP:  74; 6HR MAX TEMP:  88;

BENTONVILLE    CLEAR     79  70  73 E7        30.15S
6HR MIN TEMP:  79; 6HR MAX TEMP:  91;

ROGERS         CLEAR     78  71  79 E8        30.16R
6HR MIN TEMP:  78; 6HR MAX TEMP:  91;

SILOAM SPGS    CLEAR     77  66  69 CALM      30.13R
6HR MIN TEMP:  77; 6HR MAX TEMP:  91;

HIGHFILL       CLEAR     78  72  81 NE5       30.14R
6HR MIN TEMP:  78; 6HR MAX TEMP:  91;

$$

ARZ004-005-016-300700-
NORTH CENTRAL ARKANSAS

CITY           SKY/WX    TMP DP  RH WIND       PRES   REMARKS
BATESVILLE     CLEAR     79  73  83 CALM      30.09S
6HR MIN TEMP:  79; 6HR MAX TEMP:  91;

FLIPPIN        MOCLDY    81  72  74 N3        30.11S
6HR MIN TEMP:  81; 6HR MAX TEMP:  93;

MTN HOME       MOCLDY    78  72  81 NE3       30.13R
6HR MIN TEMP:  77; 6HR MAX TEMP:  90;

$$

ARZ040-041-300700-
WEST CENTRAL ARKANSAS

CITY           SKY/WX    TMP DP  RH WIND       PRES   REMARKS
MENA           CLEAR     77  72  83 CALM      30.09F
MOUNT IDA      CLEAR     78  74  87 CALM      30.05S
6HR MIN TEMP:  78; 6HR MAX TEMP:  96;

$$

ARZ009-017-025-026-028-300700-
NORTHEAST ARKANSAS

CITY           SKY/WX    TMP DP  RH WIND       PRES   REMARKS
JONESBORO      CLEAR     81  76  84 N6        30.06S HX  87
6HR MIN TEMP:  81; 6HR MAX TEMP:  92;

NEWPORT        CLEAR     78  76  94 N6        30.08S
6HR MIN TEMP:  78; 6HR MAX TEMP:  96;

WALNUT RIDGE   CLEAR     79  73  83 N7        30.08R
6HR MIN TEMP:  79; 6HR MAX TEMP:  93;

BLYTHEVILLE    CLEAR     80  78  94 CALM      30.05F HX  88
6HR MIN TEMP:  79; 6HR MAX TEMP:  93;

$$

ARZ022-023-033-042-044-300700-
CENTRAL ARKANSAS

CITY           SKY/WX    TMP DP  RH WIND       PRES   REMARKS
LITTLE ROCK    PTCLDY    85  74  69 NE8       30.05R HX  92
6HR MIN TEMP:  84; 6HR MAX TEMP:  97;

N LITTLE ROCK    N/A     83  76  80 NE9G15    30.05R HX  91
6HR MIN TEMP:  83; 6HR MAX TEMP:  97;

JACKSONVILLE   CLEAR     83  76  80 NE8       30.06R HX  91
6HR MIN TEMP:  79; 6HR MAX TEMP:  96; 6HR PCP:  0.23;

SEARCY         CLEAR     83  76  79 NE6       30.08R HX  91
6HR MIN TEMP:  81; 6HR MAX TEMP:  95;

HOT SPRINGS    PTCLDY    82  72  71 CALM      30.06S HX  87
6HR MIN TEMP:  82; 6HR MAX TEMP:  98;

RUSSELLVILLE   CLEAR     84  73  69 SE3       30.07R HX  90
6HR MIN TEMP:  80; 6HR MAX TEMP:  97;

CLINTON        LGT RAIN  77  77 100 CALM      30.11S
$$

ARZ036-300700-
EAST ARKANSAS

CITY           SKY/WX    TMP DP  RH WIND       PRES   REMARKS
WEST MEMPHIS   CLEAR     82  75  79 N6        30.04S HX  89
6HR MIN TEMP:  82; 6HR MAX TEMP:  93;

$$

ARZ050-053-066-070-073-300700-
SOUTHWEST ARKANSAS

CITY           SKY/WX    TMP DP  RH WIND       PRES   REMARKS
ARKADELPHIA    FAIR      80  78  94 CALM      30.04S HX  86
6HR MIN TEMP:  80; 6HR MAX TEMP: 100;

CAMDEN         CLEAR     79  75  89 CALM      30.03S
TEXARKANA      CLEAR     81  71  71 CALM      30.04S HX  85
6HR MIN TEMP:  79; 6HR MAX TEMP:  96;

EL DORADO      CLEAR     78  75  90 CALM      30.04S
6HR MIN TEMP:  78; 6HR MAX TEMP:  97;

DE QUEEN       CLEAR     77  76  96 CALM      30.02S FOG
6HR MIN TEMP:  77; 6HR MAX TEMP:  96;

$$

ARZ056-057-069-300700-
SOUTHEAST ARKANSAS

CITY           SKY/WX    TMP DP  RH WIND       PRES   REMARKS
PINE BLUFF     PTCLDY    82  79  90 CALM      30.04R HX  92
6HR MIN TEMP:  82; 6HR MAX TEMP:  96; 6HR PCP: TRACE;

STUTTGART      PTCLDY    82  75  78 N10       30.05R HX  89
6HR MIN TEMP:  82; 6HR MAX TEMP:  95;

MONTICELLO     PTCLDY    82  79  90 CALM      30.03S HX  92
6HR MIN TEMP:  81; 6HR MAX TEMP:  97;


$$




USA.gov is the U.S. government's official web portal to all federal, state and local government web resources and services.